Search flights

Sochi Airport, Sochi (URSS)

Airport Weather & NOTAM's

METAR for:URSS (Sochi Intl, KD, RU)
Text:URSS 242330Z 04004MPS 9999 NSC 21/17 Q1004 R02/010070 R06/010070 NOSIG RMK R06/08005MPS QFE752
Conditions at:2330 UTC 24 Jul 2024
Temperature: 21.0°C ( 70°F)
Dewpoint: 17.0°C ( 63°F) [RH = 78%]
Pressure (altimeter):29.65 inches Hg (1004.0 mb)
Winds:from the NE (40 degrees) at 9 MPH (8 knots; 4.1 m/s)
Visibility:6 or more sm (10+ km)
Ceiling:at least 12,000 feet AGL
Clouds:sky clear below 12,000 feet AGL
TAF for:URSS (Sochi Intl, KD, RU) issued at 2255 UTC 24 Jul 2024
Text:TAF URSS 242255Z 2500/2524 04005MPS 9999 FEW040
Forecast period:0000 to 0600 UTC 25 July 2024
Forecast type:FROM: standard forecast or significant change
Winds:from the NE (40 degrees) at 12 MPH (10 knots; 5.1 m/s)
Visibility:6 or more sm (10+ km)
Ceiling:at least 12,000 feet AGL
Clouds:few clouds at 4000 feet AGL
Text:BECMG 2506/2507 18004G09MPS
Forecast period:0600 to 1100 UTC 25 July 2024
Forecast type:BECOMING: Conditions expected to become as follows by 0700 UTC 25 July 2024
Winds:from the S (180 degrees) at 9 MPH (8 knots; 4.1 m/s) gusting to 20 MPH (17 knots; 8.7 m/s)
Visibility:6 or more sm (10+ km)
Ceiling:at least 12,000 feet AGL
Clouds:few clouds at 4000 feet AGL
Text:BECMG 2511/2512 26004G09MPS
Forecast period:1100 to 1700 UTC 25 July 2024
Forecast type:BECOMING: Conditions expected to become as follows by 1200 UTC 25 July 2024
Winds:from the W (260 degrees) at 9 MPH (8 knots; 4.1 m/s) gusting to 20 MPH (17 knots; 8.7 m/s)
Visibility:6 or more sm (10+ km)
Ceiling:at least 12,000 feet AGL
Clouds:few clouds at 4000 feet AGL
Text:BECMG 2517/2518 05003G08MPS SCT020 BKN100
Forecast period:1700 UTC 25 July 2024 to 0000 UTC 26 July 2024
Forecast type:BECOMING: Conditions expected to become as follows by 1800 UTC 25 July 2024
Winds:from the NE (50 degrees) at 7 MPH (6 knots; 3.1 m/s) gusting to 18 MPH (16 knots; 8.2 m/s)
Visibility:6 or more sm (10+ km)
Ceiling:10000 feet AGL
Clouds:scattered clouds at 2000 feet AGL, broken clouds at 10000 feet AGL

Live Departures & Arrivals

There are currently no arrivals or departures for this airport.

Departures History (last 12 months)

Flight No. Dest. Aircraft Date
BLENDER (51-05) URSS FA-18/C B... 2024-07-08 22:00:00
IRON [51-01] URSS BOEING FA-... 2024-06-23 17:30:00
OP5101 URSS F18 2024-06-19 21:00:00
OP5101 URSS F18 2024-06-19 12:00:00
MO5101 URSS F18 2024-06-19 21:30:00
GOLD[51-78] URSS F18 2024-06-19 08:00:00
VIPER 51-03 URSS F-16 2024-06-19 21:30:00
IRON [51-01] URSS BOEING F-... 2024-06-18 22:30:00
BLENDER (51-05) URSS FA-18/C B... 2024-06-03 22:00:00
BLENDER (51-05) URSS FA-18/C B... 2024-05-16 22:00:00
BLENDER (51-05) URSS FA-18/C B... 2024-05-02 22:00:00
BLENDER (51-05) URSS FA-18/C B... 2024-04-22 22:00:00
[51-01] IRON URSS F/A-18C BO... 2024-04-16 22:00:00
BLENDER (51-05) URSS FA-18/C B... 2024-04-15 22:00:00
[51-03] UNCINO? URSS GENERAL DY... 2024-04-12 21:00:00
[51-01] IRON URSS FA-18/C BO... 2024-04-11 21:30:00
BLENDER (51-05) URSS FA-18/C B... 2024-04-11 21:30:00
BLENDER (51-05) URSS FA-18/C B... 2024-04-11 22:00:00
BLENDER (51-05) URSS FA-18/C B... 2024-04-08 22:00:00
BLENDER (51-05) URSS FA-18/C B... 2024-04-04 21:50:00
[51-01] IRON URSS FA-18/C BO... 2024-04-01 11:30:00
[51-01] IRON URSS FA-18/C BO... 2024-04-01 10:30:00
[51-01] IRON URSS FA-18/C BO... 2024-04-01 22:00:00
BLENDER (51-05) URSS FA-18/C B... 2024-03-04 21:00:00
[51-01] IRON URSS FA-18/C BO... 2024-03-28 21:00:00
BLENDER (51-05) URSS FA-18/C B... 2024-03-28 22:30:00
BLENDER (51-05) URSS FA-18/C B... 2024-03-25 22:00:00
BLENDER (51-05) URSS FA-18/C B... 2024-03-25 22:00:00
BLENDER (51-05) URSS FA-18/C B... 2024-03-18 21:30:00
VIPER 01 URSS F-16 2024-03-15 21:00:00
BLENDER (51-05) URSS FA-18/C B... 2024-03-15 22:00:00
BLENDER (51-05) URSS FA-18/C B... 2024-03-11 22:00:00
VIPER 01 URSS F-16 2024-03-11 21:00:00
BLENDER (51-05) URSS FA-18/C B... 2024-03-04 22:00:00
IRON[51-01] URSS FA-18/C BO... 2024-02-28 22:50:00
IRON[51-01] URSS FA-18/C BO... 2024-02-28 22:00:00
BLENDER (51-05) URSS FA-18/C B... 2024-02-26 22:00:00
IRON[51-01] URSS FA-18/C BO... 2024-02-25 22:30:00
IRON[51-01] URSS FA-18/C BO... 2024-02-21 22:30:00
BLENDER (51-05) URSS FA-18/C B... 2024-02-15 22:00:00
IRON[51-01] URSS FA-18/C BO... 2024-02-14 22:30:00
IRON[51-01] URSS FA-18/C BO... 2024-02-13 22:00:00
CAOTES [51-15] URSS F/A-18C BO... 2024-02-13 22:00:00
IRON[51-01] URSS FA-18/C BO... 2024-02-11 22:00:00
IRON[51-01] URSS FA-18/C BO... 2024-02-11 11:00:00
IRON[51-01] URSS FA-18/C BO... 2024-02-10 22:30:00
UNCINO [51-03] URSS MCDONNELL... 2024-02-06 21:23:00
IRON[51-01] URSS FA-18/C BO... 2024-02-05 22:00:00
GOLD[51-78] URSS FA-18/C B... 2024-02-05 14:00:00
GOLD[51-78] URSS FA-18/C B... 2024-02-05 21:00:00
GOLD[51-78] URSS FA-18/C B... 2024-02-05 18:00:00
CAOTES [51-15] URSS F/A-18C BO... 2024-02-05 22:10:00
BLENDER (51-05) URSS FA-18/C B... 2024-02-05 21:00:00
IRON[51-01] URSS FA-18/C BO... 2024-02-11 23:00:00
BLENDER (51-05) URSS FA-18/C B... 2024-02-05 21:00:00
IRON [51-01] URSS FA-18/C BO... 2024-01-29 23:00:00
IRON [51-01] URSS FA-18/C BO... 2024-01-29 21:45:00
CAOTES [51-15] URSS F/A-18C BO... 2024-01-29 22:00:00
BLENDER (51-05) URSS FA-18/C B... 2024-02-05 20:00:00
BLENDER (51-05) URSS FA-18/C B... 2024-01-29 21:00:00
EL MULO (51-55) URSS C130 2024-01-29 19:00:00
BLENDER (51-05) URSS M2000 C 2024-01-26 20:00:00
IRON [51-01] URSS FA-18/C BO... 2024-01-26 21:15:00
CAOTES [51-15] URSS F/A-18C BO... 2024-01-26 22:00:00
IRON [51-01] URSS FA-18/C BO... 2024-01-24 22:30:00
IRON [51-01] URSS FA-18/C BO... 2024-01-23 22:30:00
IRON [51-01] URSS FA-18/C BO... 2024-01-23 22:00:00
CAOTES [51-15] URSS F/A-18C BO... 2024-01-22 22:00:00
IRON [51-01] URSS FA-18/C BO... 2024-01-22 22:30:00
IRON [51-01] URSS FA-18/C BO... 2024-01-22 17:30:00
IRON [51-01] URSS MB339 2024-01-21 11:45:00
IRON [51-01] URSS FA-18/C BO... 2024-01-20 11:00:00
GOLD[51-78] URSS FA-18/C B... 2024-01-20 18:00:00
GOLD[51-78] URSS FA-18/C B... 2024-01-20 20:00:00
GOLD[51-78] URSS F18 2024-01-20 22:00:00
GOLD5278 URSS F18 2024-01-20 22:00:00
BLENDER (51-05) URSS FA-18/C B... 2024-01-26 21:00:00
IRON [51-01] URSS FA-18/C BO... 2024-01-18 22:00:00
BLENDER (51-05) URSS FA-18/C B... 2024-01-26 22:00:00
BLENDER (51-05) URSS FA-18/C B... 2024-01-26 21:00:00
BLENDER (51-05) URSS FA-18/C B... 2024-01-26 21:00:00
BLENDER (51-05) URSS FA-18/C B... 2024-01-13 22:00:00
BLENDER (51-05) URSS FA-18/C B... 2024-01-08 22:00:00
IRON [51-01] URSS AERMACCHI... 2023-12-24 18:00:00
BLENDER (51-05) URSS MB339A 2023-12-23 18:00:00
BLENDER (51-05) URSS FA-18/C B... 2023-12-21 22:00:00
IRON [51-01] URSS FA-18/C BO... 2023-12-18 22:00:00
BLENDER (51-05) URSS FA-18/C B... 2023-12-18 22:00:00
IRON [51-01] URSS FA-18/C BO... 2023-12-17 11:00:00
SPARTAN ( 51-08) URSS MB339A 2023-12-14 22:15:00
IRON [51-01] URSS MB339 2023-12-14 22:15:00
BLENDER (51-05) URSS MB339 PAN 2023-12-14 22:15:00
MAVERICK [51-02] URSS FA-18/C B... 2023-12-11 22:00:00
IRON[51-01] URSS FA-18/C BO... 2023-12-11 22:00:00
GOLD[51-78] URSS FA-18/C B... 2023-12-11 22:00:00
BLENDER (51-05) URSS FA-18/C B... 2023-12-11 22:00:00
IRON[51-01] URSS FA-18/C BO... 2023-12-11 16:00:00
SPARTAN ( 51-08) URSS FA-18/C BO... 2023-12-08 14:45:00
SPARTAN ( 51-08) URSS FA-18/C BO... 2023-12-07 22:45:00
IRON[51-01] URSS FA-18/C BO... 2023-12-07 22:00:00
GOLD[51-78] URSS FA-18/C B... 2023-12-07 22:00:00
IRON[51-01] URSS FA-18/C BO... 2023-12-06 22:00:00
IRON[51-01] URSS FA-18/C BO... 2023-12-05 22:00:00
GOLD[51-78] URSS FA-18/C B... 2023-12-05 22:00:00
VOLO FORD 1-2 URSS F-18C 2024-02-06 21:00:00
GOLD[51-78] URSS FA-18/C B... 2023-12-05 22:00:00
IRON[51-01] URSS FA-18/C BO... 2023-12-03 17:30:00
IRON[51-01] URSS FA-18/C BO... 2023-12-03 16:00:00
IRON[51-01] URSS FA-18/C BO... 2023-12-03 11:00:00
GOLD[51-78] URSS FA-18/C B... 2023-12-05 17:00:00
SPARTAN ( 51-07) URSS MB339A 2023-11-29 17:00:00
IRON[51-01] URSS FA-18/C BO... 2023-11-28 22:30:00
BLENDER (51-05) URSS FA-18/C B... 2023-11-27 22:00:00
IRON[51-01] URSS FA-18/C BO... 2023-11-24 22:30:00
CAOTES [51-15] URSS FA-18/C B... 2023-11-24 22:15:00
IRON[51-01] URSS FA-18/C BO... 2023-11-20 23:00:00
GOLD[51-78] URSS FA-18/C B... 2023-11-21 21:45:00
SPARTAN ( 51-08) URSS FA-18/C MC... 2023-11-19 17:30:00
IRON[51-01] URSS UH-60L 2023-11-19 16:30:00
IRON[51-01] URSS FA-18/C BO... 2023-11-19 11:20:00
GOLD[51-78] URSS FA-18/C B... 2023-11-21 17:00:00
SPARTAN ( 51-08) URSS FA-18/C MC... 2023-11-17 17:00:00
SPARTAN ( 51-08) URSS FA-18/C MC... 2023-11-17 23:00:00
SPARTAN ( 51-08) URSS FA-18/C MC... 2023-11-13 22:00:00
IRON[51-01] URSS FA-18/C BO... 2023-11-13 22:00:00
BLENDER (51-05) URSS FA-18/C B... 2023-11-13 21:45:00
GOLD[51-78] URSS FA-18/C B... 2023-11-11 22:00:00
CAOTES [51-15] URSS FA-18/C B... 2023-11-09 22:30:00
BLENDER (51-05) URSS FA-18/C B... 2023-11-06 22:00:00
BLENDER (51-05) URSS FA-18/C B... 2023-11-05 22:00:00
UNCINO [51-03] URSS MCDONNELL... 2023-11-05 15:00:00
UNCINO [51-03] URKW MCDONNELL... 2023-11-04 22:00:00
SPARTAN ( 51-08) URSS FA-18/C BO... 2023-11-03 22:25:00
IRON[51-01] URRS BOEING FA-... 2023-11-03 22:30:00
GOLD[51-78] URSS FA-18/C B... 2023-11-05 22:00:00
CAOTES [51-15] URSS F/A-18C BO... 2023-11-03 23:00:00
EL MULO [51-55] URSS SA341GAZEL... 2023-11-01 15:09:00
ELMULO[51-55] URSS SA341 GAZE... 2023-10-31 15:05:00
SPARTAN ( 51-08) URSS FA-18/C BO... 2023-10-31 22:00:00
IRON[51-01] URRS BOEING FA-... 2023-11-01 22:00:00
BLENDER (51-05) URSS FA-18/C B... 2023-10-31 21:45:00
UNCINO [51-03] USGB MCDONNELL... 2023-10-23 21:30:00
MAVERICK [51-02] URSS FA-18/C B... 2023-10-23 21:45:00
IRON 51-01 URSS F/A-18C BO... 2023-10-23 22:00:00
GOLD[51-78] URSS FA-18/C B... 2023-10-23 21:30:00
IRON 51-01 URSS F/A-18C BO... 2023-10-22 22:30:00
CAOTES [51-15] URSS F/A-18C BO... 2023-10-23 15:15:00
GOLD[51-78] URSS FA-18/C B... 2023-10-23 22:00:00
SPARTAN ( 51-08) URSS FA-18/C BO... 2023-10-31 22:00:00
BLENDER (51-05) URSS FA-18/C B... 2023-10-19 22:00:00
GOLD[51-78] URSS FA-18/C B... 2023-10-17 22:45:00
GOLD[51-78] URSS FA-18/C B... 2023-10-17 21:30:00
EL MULO [51-55] URSS SA341 GAZE... 2023-10-17 20:02:00
BLENDER (51-05) URSS FA-18/C B... 2023-10-16 09:40:00
MAVERICK [51-02] URSS FA-18/C B... 2023-10-15 22:30:00
IRON 51-01 URSS F/A-18C BO... 2023-10-15 17:00:00
IRON 51-01 URSS F/A-18C BO... 2023-10-15 22:30:00
IRON 51-01 URSS F/A-18C BO... 2023-10-15 11:30:00
GOLD[51-78] URSS FA-18/C B... 2023-10-15 14:30:00
EL MULO [51-55] URSS SA341 GAZE... 2023-10-15 13:00:00
CAOTES [51-15] URSS F18 C 2023-10-16 14:40:00
UNCINO [51-03] URSS FA-18/C B... 2023-11-10 22:00:00
SPARTAN ( 51-08) URSS FA-18/C BO... 2023-10-13 14:20:00
IRON 51-01 URSS F/A-18C BO... 2023-10-13 23:00:00
UNCINO [51-03] UG5X MCDONNELL... 2023-10-23 21:00:00
CAOTES [51-15] URSS F18 C 2023-10-13 23:00:00
BLENDER (51-05) URSS FA-18/C B... 2023-10-12 23:10:00
SPARTAN 51-07 URSS MB339A 2023-10-10 14:40:00
IRON 51-01 URSS F/A-18C BO... 2023-10-10 22:30:00
GOLD[51-78] URSS F/A-18 2023-10-10 23:00:00
UNCINO [51-03] URSS MCDONNELL... 2023-10-21 21:00:00
SPARTAN ( 51-08) URSS FA-18/C BO... 2023-10-09 22:00:00
IRON 51-01 URSS F/A-18C BO... 2023-10-09 22:00:00
CAOTES [51-15] URSS F18 C 2023-10-09 21:45:00
BLENDER (51-05) URSS FA-18/C B... 2023-10-09 22:00:00
IRON 51-01 URSS F/A-18C BO... 2023-10-08 16:00:00
SPARTAN ( 51-08) URSS FA-18/C BO... 2023-10-05 22:15:00
IRECA [51-01] URSS F18C 2023-10-05 23:12:00
GOLD[51-78] URSS FA-18/C B... 2023-10-05 22:15:00
CAOTES [51-15] URSS F18 C 2023-10-05 23:10:00
SPARTAN ( 51-08) URSS FA-18/C BO... 2023-10-03 14:00:00
GOLD[51-78] URSS FA-18/C B... 2023-10-04 23:00:00
GOLD[51-78] URSS FA-18/C B... 2023-10-03 17:00:00
UNCINO [51-03] UGSB FA-18/C B... 2023-10-02 21:30:00
SPARTAN ( 51-08) URSS FA-18/C BO... 2023-10-02 21:45:00
MAVERICK [51-02] URSS FA-18/C B... 2023-10-02 21:45:00
IRON 51-01 URSS FA-18/C BO... 2023-10-02 22:00:00
GOLD[51-78] URSS FA-18/C B... 2023-10-02 21:40:00
CAOTES [51-15] URSS FA-18/C B... 2023-10-02 21:45:00
BLENDER (51-05) URSS FA-18/C B... 2023-10-02 21:35:00
CAOTES [51-15] URSS F18 C 2023-10-01 21:45:00
CAOTES [51-15] URSS F18 C 2023-10-01 17:10:00
CAOTES [51-15] URSS F18 C 2023-10-01 09:05:00
CAOTES [51-15] URSS F18 C 2023-10-01 08:30:00
UNCINO [51-03] URSS MCDONNELL... 2023-09-30 14:00:00
IRON 51-01 URSS FA-18/C BO... 2023-09-30 00:00:00
IRON 51-01 URSS FA-18/C BO... 2023-09-30 23:00:00
IRON 51-01 URSS FA-18/C BO... 2023-09-30 18:00:00
IRON 51-01 URSS FA-18/C BO... 2023-09-30 16:00:00
GOLD[51-78] URSS F/A-18 2023-09-30 16:10:00
ELMULO [51-55] URSS SA341 GAZE... 2023-09-30 15:10:00
CAOTES [51-15] URSS F18 C 2023-10-01 22:00:00
CAOTES [51-15] URSS F18C 2023-10-01 17:30:00
UNCINO [51-03] URSS MCDONNELL... 2023-09-30 21:00:00
SPARTAN ( 51-08) URSS FA-18/C BO... 2023-09-27 14:30:00
SPARTAN ( 51-07) URSS MB339A 2023-09-27 16:40:00
ELMULO [51-55] URSS SA341 GAZE... 2023-09-27 15:30:00
VOLO FORD 1-2 URSS F-18C 2023-09-27 09:30:00
MAVERICK [51-02] URSS FA-18/C B... 2023-09-25 22:00:00
IRON 51-01 URSS F/A-18C BO... 2023-09-28 21:30:00
SPARTAN ( 51-08) URSS FA-18/C BO... 2023-09-26 22:00:00
IRON 51-01 URSS F/A-18C BO... 2023-09-28 21:30:00
GOLD[51-78] URSS F/A-18 2023-09-25 22:00:00
ELMULO [51-55] URSS SA341 GAZE... 2023-09-26 22:00:00
CAOTES [51-15] URSS F18 C 2023-09-26 22:00:00
BLENDER (51-05) URSS FA-18C BOE... 2023-09-28 22:00:00
VOY1955H118 URSS SA342 GAZE... 2023-09-24 16:40:00
IRON 51-01 URSS FA-18/C BO... 2023-09-24 18:30:00
IRON 51-01 URSS FA-18/C BO... 2023-09-24 17:00:00
GOLD[51-78] URSS F/A-18 2023-09-25 18:30:00
GOLD[51-78] URSS F/A-18 2023-09-25 17:00:00
VOY1955H117 URSS SA342 GAZE... 2023-09-24 07:30:00
IRON 51-01 URSS FA-18/C BO... 2023-09-23 12:00:00
GOLD[51-78] URSS F/A-18 2023-09-25 17:00:00
IRON 51-01 URSS FA-18/C BO... 2023-09-23 22:00:00
MAVERICK [51-02] URSS FA-18/C BO... 2023-09-24 21:30:00
IRON 51-01 URSS FA-18/C BO... 2023-09-21 22:00:00
GOLD[51-78] URSS F/A-18 2023-09-21 23:00:00
BLENDER (51-05) URSS M2000 C 2023-09-21 22:00:00
IRON 51-01 URSS FA-18/C BO... 2023-09-20 23:00:00
GOLD[51-78] URSS F/A-18 2023-09-21 22:00:00
SPARTAN 51-08 URSS F-18 2023-09-18 22:50:00
MAVERICK [51-02] URSS FA-18/C B... 2023-09-18 23:00:00
IRON 51-01 URSS FA-18/C BO... 2023-09-18 23:00:00
BLENDER (51-05) URSS FA-18C BOE... 2023-09-18 23:00:00
IRON 51-01 URSS FA-18C BOE... 2023-09-17 23:00:00
IRON 51-01 URSS FA-18C BOE... 2023-09-17 18:00:00
IRON 51-01 URSS FA-18C BOE... 2023-09-17 17:00:00
CAOTES [51-15] URSS F18 C 2023-09-17 08:50:00
CAOTES [51-15] URSS F18 C 2023-09-17 15:00:00
CAOTES [51-15] URSS F18 C 2023-09-16 21:50:00
BLENDER (51-05) URSS F-18 2023-09-16 23:40:00
IRON 51-01 URSS FA-18/C 2023-09-15 23:00:00
GOLD[51-78] URSS F/A-18 2023-09-15 23:40:00
UNCINO [51-03] URSS MCDONNELL... 2023-09-14 23:00:00
UNCINO [51-03] URSS MCDONNELL... 2023-09-14 22:00:00
IRON 51-01 URSS FA-18/C 2023-09-13 23:10:00
IRON 51-01 URSS FA-18/C 2023-09-13 22:00:00
GOLD[51-78] URSS F/A-18 2023-09-13 22:30:00
CAOTES [51-15] URSS F18 C 2023-09-13 22:00:00
CAOTES [51-15] URSS F18 C 2023-09-13 21:20:00
BLENDER (51-05) URSS F-18 2023-09-13 23:00:00
BLENDER (51-05) URSS F-18 2023-09-13 21:00:00
IRON 51-01 URSS FA-18/C 2023-09-13 23:00:00
GOLD[51-78] URSS F/A-18 2023-09-12 23:00:00
GOLD[51-78] URSS F/A-18 2023-09-12 13:45:00
BLENDER (51-05) URSS F-18 2023-09-12 21:30:00
IRON 51-01 URSS FA-18/C 2023-09-10 22:59:00
IRON 51-01 URSS FA-18/C 2023-09-10 17:30:00
IRON 51-01 URSS FA-18/C 2023-09-10 11:00:00

Arrivals History (last 12 months)

Flight No. Origin Aircraft Date
BLENDER (51-05) URSS FA-18/C B... 2024-07-08 23:00:00
IRON [51-01] URSS BOEING FA-... 2024-06-23 18:30:00
OP5101 URSS F18 2024-06-19 23:00:00
OP5101 URSS F18 2024-06-19 13:00:00
MO5101 URSS F18 2024-06-19 23:00:00
GOLD[51-78] URSS F18 2024-06-19 09:00:00
VIPER 51-03 URSS F-16 2024-06-19 23:55:00
IRON [51-01] URSS BOEING F-... 2024-06-18 23:30:00
BLENDER (51-05) URSS FA-18/C B... 2024-06-03 23:00:00
BLENDER (51-05) URSS FA-18/C B... 2024-05-16 23:30:00
BLENDER (51-05) URSS FA-18/C B... 2024-05-02 23:30:00
BLENDER (51-05) URSS FA-18/C B... 2024-04-22 23:30:00
[51-01] IRON URSS F/A-18C BO... 2024-04-16 23:30:00
BLENDER (51-05) URSS FA-18/C B... 2024-04-15 23:00:00
[51-03] UNCINO? URSS GENERAL DY... 2024-04-12 23:00:00
[51-01] IRON URSS FA-18/C BO... 2024-04-11 23:30:00
BLENDER (51-05) URSS FA-18/C B... 2024-04-11 23:30:00
BLENDER (51-05) URSS FA-18/C B... 2024-04-11 23:30:00
BLENDER (51-05) URSS FA-18/C B... 2024-04-08 23:30:00
BLENDER (51-05) URSS FA-18/C B... 2024-04-04 23:40:00
[51-01] IRON URSS FA-18/C BO... 2024-04-01 12:30:00
[51-01] IRON URSS FA-18/C BO... 2024-04-01 11:30:00
[51-01] IRON URSS FA-18/C BO... 2024-04-01 23:00:00
BLENDER (51-05) URSS FA-18/C B... 2024-03-04 23:30:00
[51-01] IRON URSS FA-18/C BO... 2024-03-28 23:00:00
BLENDER (51-05) URSS FA-18/C B... 2024-03-28 23:50:00
BLENDER (51-05) URSS FA-18/C B... 2024-03-25 23:50:00
BLENDER (51-05) URSS FA-18/C B... 2024-03-25 23:50:00
BLENDER (51-05) URSS FA-18/C B... 2024-03-18 23:30:00
VIPER 01 URSS F-16 2024-03-15 23:15:00
BLENDER (51-05) URSS FA-18/C B... 2024-03-15 23:50:00
BLENDER (51-05) URSS FA-18/C B... 2024-03-11 23:50:00
VIPER 01 URSS F-16 2024-03-11 23:51:00
BLENDER (51-05) URSS FA-18/C B... 2024-03-04 23:55:00
IRON[51-01] URSS FA-18/C BO... 2024-02-28 23:50:00
IRON[51-01] URSS FA-18/C BO... 2024-02-28 23:30:00
BLENDER (51-05) URSS FA-18/C B... 2024-02-26 23:50:00
IRON[51-01] URSS FA-18/C BO... 2024-02-25 23:45:00
IRON[51-01] URSS FA-18/C BO... 2024-02-21 23:45:00
BLENDER (51-05) URSS FA-18/C B... 2024-02-15 23:30:00
IRON[51-01] URSS FA-18/C BO... 2024-02-14 23:30:00
IRON[51-01] URSS FA-18/C BO... 2024-02-13 23:30:00
CAOTES [51-15] URSS F/A-18C BO... 2024-02-13 23:50:00
IRON[51-01] URSS FA-18/C BO... 2024-02-11 23:00:00
IRON[51-01] URSS FA-18/C BO... 2024-02-11 12:00:00
IRON[51-01] URSS FA-18/C BO... 2024-02-10 23:30:00
UNCINO [51-03] URSS MCDONNELL... 2024-02-06 23:30:00
IRON[51-01] URSS FA-18/C BO... 2024-02-05 23:00:00
GOLD[51-78] URSS FA-18/C B... 2024-02-05 16:00:00
GOLD[51-78] URSS FA-18/C B... 2024-02-05 23:00:00
GOLD[51-78] URSS FA-18/C B... 2024-02-05 20:00:00
CAOTES [51-15] URSS F/A-18C BO... 2024-02-05 23:50:00
BLENDER (51-05) URSS FA-18/C B... 2024-02-05 23:15:00
IRON[51-01] URSS FA-18/C BO... 2024-02-11 23:59:00
BLENDER (51-05) URSS FA-18/C B... 2024-02-05 23:00:00
IRON [51-01] URSS FA-18/C BO... 2024-01-29 23:58:00
IRON [51-01] URSS FA-18/C BO... 2024-01-29 22:50:00
CAOTES [51-15] URSS F/A-18C BO... 2024-01-29 23:50:00
BLENDER (51-05) URSS FA-18/C B... 2024-02-05 23:00:00
BLENDER (51-05) URSS FA-18/C B... 2024-01-29 23:30:00
EL MULO (51-55) URSS C130 2024-01-29 19:50:00
BLENDER (51-05) URSS M2000 C 2024-01-26 23:00:00
IRON [51-01] URSS FA-18/C BO... 2024-01-26 23:15:00
CAOTES [51-15] URSS F/A-18C BO... 2024-01-26 23:50:00
IRON [51-01] URSS FA-18/C BO... 2024-01-24 23:50:00
IRON [51-01] URSS FA-18/C BO... 2024-01-23 23:30:00
IRON [51-01] URSS FA-18/C BO... 2024-01-23 23:30:00
CAOTES [51-15] URSS F/A-18C BO... 2024-01-22 23:20:00
IRON [51-01] URSS FA-18/C BO... 2024-01-22 23:30:00
IRON [51-01] URSS FA-18/C BO... 2024-01-22 18:30:00
IRON [51-01] URSS MB339 2024-01-21 12:45:00
IRON [51-01] URSS FA-18/C BO... 2024-01-20 12:00:00
GOLD[51-78] URSS FA-18/C B... 2024-01-20 19:59:00
GOLD[51-78] URSS FA-18/C B... 2024-01-20 21:59:00
GOLD[51-78] URSS F18 2024-01-20 23:59:00
GOLD5278 URSS F18 2024-01-20 23:59:00
BLENDER (51-05) URSS FA-18/C B... 2024-01-26 23:00:00
IRON [51-01] URSS FA-18/C BO... 2024-01-18 23:30:00
BLENDER (51-05) URSS FA-18/C B... 2024-01-26 23:00:00
BLENDER (51-05) URSS FA-18/C B... 2024-01-26 23:00:00
BLENDER (51-05) URSS FA-18/C B... 2024-01-26 23:00:00
BLENDER (51-05) URSS FA-18/C B... 2024-01-13 23:45:00
BLENDER (51-05) URSS FA-18/C B... 2024-01-08 23:40:00
IRON [51-01] URSS AERMACCHI... 2023-12-24 19:00:00
BLENDER (51-05) URSS MB339A 2023-12-23 19:00:00
BLENDER (51-05) URSS FA-18/C B... 2023-12-21 00:00:00
IRON [51-01] URSS FA-18/C BO... 2023-12-18 00:00:00
BLENDER (51-05) URSS FA-18/C B... 2023-12-18 00:00:00
IRON [51-01] URSS FA-18/C BO... 2023-12-17 12:00:00
SPARTAN ( 51-08) URSS MB339A 2023-12-14 23:30:00
IRON [51-01] URSS MB339 2023-12-14 23:30:00
BLENDER (51-05) URSS MB339 PAN 2023-12-14 23:30:00
MAVERICK [51-02] URSS FA-18/C B... 2023-12-11 00:00:00
IRON[51-01] URSS FA-18/C BO... 2023-12-11 00:00:00
GOLD[51-78] URSS FA-18/C B... 2023-12-11 00:00:00
BLENDER (51-05) URSS FA-18/C B... 2023-12-11 23:30:00
IRON[51-01] URSS FA-18/C BO... 2023-12-11 18:00:00
SPARTAN ( 51-08) URSS FA-18/C BO... 2023-12-08 15:30:00
SPARTAN ( 51-08) URSS FA-18/C BO... 2023-12-07 23:25:00
IRON[51-01] URSS FA-18/C BO... 2023-12-07 23:00:00
GOLD[51-78] URSS FA-18/C B... 2023-12-07 23:30:00
IRON[51-01] URSS FA-18/C BO... 2023-12-06 23:00:00
IRON[51-01] URSS FA-18/C BO... 2023-12-05 00:00:00
GOLD[51-78] URSS FA-18/C B... 2023-12-05 00:00:00
VOLO FORD 1-2 URSS F-18C 2024-02-06 23:30:00
GOLD[51-78] URSS FA-18/C B... 2023-12-05 00:00:00
IRON[51-01] URSS FA-18/C BO... 2023-12-03 18:30:00
IRON[51-01] URSS FA-18/C BO... 2023-12-03 17:00:00
IRON[51-01] URSS FA-18/C BO... 2023-12-03 12:30:00
GOLD[51-78] URSS FA-18/C B... 2023-12-05 18:00:00
SPARTAN ( 51-07) URSS MB339A 2023-11-29 17:50:00
IRON[51-01] URSS FA-18/C BO... 2023-11-28 23:30:00
BLENDER (51-05) URSS FA-18/C B... 2023-11-27 23:00:00
IRON[51-01] URSS FA-18/C BO... 2023-11-24 23:30:00
CAOTES [51-15] URSS FA-18/C B... 2023-11-24 23:45:00
IRON[51-01] URSS FA-18/C BO... 2023-11-20 00:00:00
GOLD[51-78] URSS FA-18/C B... 2023-11-21 00:00:00
SPARTAN ( 51-08) URSS FA-18/C MC... 2023-11-19 18:45:00
IRON[51-01] URSS UH-60L 2023-11-19 18:00:00
IRON[51-01] URSS FA-18/C BO... 2023-11-19 12:20:00
GOLD[51-78] URSS FA-18/C B... 2023-11-21 18:15:00
SPARTAN ( 51-08) URSS FA-18/C MC... 2023-11-17 18:20:00
SPARTAN ( 51-08) URSS FA-18/C MC... 2023-11-17 00:15:00
SPARTAN ( 51-08) URSS FA-18/C MC... 2023-11-13 23:30:00
IRON[51-01] URSS FA-18/C BO... 2023-11-13 23:40:00
BLENDER (51-05) URSS FA-18/C B... 2023-11-13 23:45:00
GOLD[51-78] URSS FA-18/C B... 2023-11-11 23:30:00
CAOTES [51-15] URSS FA-18/C B... 2023-11-09 23:50:00
BLENDER (51-05) URSS FA-18/C B... 2023-11-06 00:10:00
BLENDER (51-05) URSS FA-18/C B... 2023-11-05 00:00:00
UNCINO [51-03] URSS MCDONNELL... 2023-11-05 16:30:00
SPARTAN ( 51-08) URSS FA-18/C BO... 2023-11-03 23:35:00
GOLD[51-78] URSS FA-18/C B... 2023-11-05 00:20:00
CAOTES [51-15] URSS F/A-18C BO... 2023-11-03 00:10:00
EL MULO [51-55] URSS SA341GAZEL... 2023-11-01 15:35:00
ELMULO[51-55] URSS SA341 GAZE... 2023-10-31 15:20:00
SPARTAN ( 51-08) URSS FA-18/C BO... 2023-10-31 23:10:00
BLENDER (51-05) URSS FA-18/C B... 2023-10-31 22:50:00
MAVERICK [51-02] URSS FA-18/C B... 2023-10-23 23:45:00
IRON 51-01 URSS F/A-18C BO... 2023-10-23 23:30:00
GOLD[51-78] URSS FA-18/C B... 2023-10-23 23:30:00
IRON 51-01 URSS F/A-18C BO... 2023-10-22 00:30:00
CAOTES [51-15] URSS F/A-18C BO... 2023-10-23 15:50:00
GOLD[51-78] URSS FA-18/C B... 2023-10-23 23:00:00
SPARTAN ( 51-08) URSS FA-18/C BO... 2023-10-31 23:15:00
BLENDER (51-05) URSS FA-18/C B... 2023-10-19 23:10:00
GOLD[51-78] URSS FA-18/C B... 2023-10-17 00:10:00
GOLD[51-78] URSS FA-18/C B... 2023-10-17 22:45:00
EL MULO [51-55] URSS SA341 GAZE... 2023-10-17 21:45:00
BLENDER (51-05) URSS FA-18/C B... 2023-10-16 23:50:00
MAVERICK [51-02] URSS FA-18/C B... 2023-10-15 00:00:00
IRON 51-01 URSS F/A-18C BO... 2023-10-15 18:30:00
IRON 51-01 URSS F/A-18C BO... 2023-10-15 00:00:00
IRON 51-01 URSS F/A-18C BO... 2023-10-15 12:30:00
GOLD[51-78] URSS FA-18/C B... 2023-10-15 17:30:00
EL MULO [51-55] URSS SA341 GAZE... 2023-10-15 14:45:00
CAOTES [51-15] URSS F18 C 2023-10-16 17:50:00
UNCINO [51-03] URSS FA-18/C B... 2023-11-10 00:00:00
SPARTAN ( 51-08) URSS FA-18/C BO... 2023-10-13 15:45:00
IRON 51-01 URSS F/A-18C BO... 2023-10-13 00:00:00
CAOTES [51-15] URSS F18 C 2023-10-13 23:40:00
BLENDER (51-05) URSS FA-18/C B... 2023-10-12 23:50:00
SPARTAN 51-07 URSS MB339A 2023-10-10 15:15:00
IRON 51-01 URSS F/A-18C BO... 2023-10-10 00:30:00
GOLD[51-78] URSS F/A-18 2023-10-10 00:15:00
UNCINO [51-03] URSS MCDONNELL... 2023-10-21 00:00:00
SPARTAN ( 51-08) URSS FA-18/C BO... 2023-10-09 00:00:00
IRON 51-01 URSS F/A-18C BO... 2023-10-09 00:00:00
CAOTES [51-15] URSS F18 C 2023-10-09 23:45:00
BLENDER (51-05) URSS FA-18/C B... 2023-10-09 23:45:00
IRON 51-01 URSS F/A-18C BO... 2023-10-08 17:00:00
UNCINO [51-03] UGSB MCDONNELL... 2023-10-21 00:00:00
SPARTAN ( 51-08) URSS FA-18/C BO... 2023-10-05 00:15:00
IRECA [51-01] URSS F18C 2023-10-05 00:23:00
GOLD[51-78] URSS FA-18/C B... 2023-10-05 12:00:00
CAOTES [51-15] URSS F18 C 2023-10-05 23:55:00
SPARTAN ( 51-08) URSS FA-18/C BO... 2023-10-03 15:00:00
GOLD[51-78] URSS FA-18/C B... 2023-10-04 00:00:00
GOLD[51-78] URSS FA-18/C B... 2023-10-03 20:00:00
SPARTAN ( 51-08) URSS FA-18/C BO... 2023-10-02 23:00:00
MAVERICK [51-02] URSS FA-18/C B... 2023-10-02 23:10:00
IRON 51-01 URSS FA-18/C BO... 2023-10-02 23:00:00
GOLD[51-78] URSS FA-18/C B... 2023-10-02 23:33:00
CAOTES [51-15] URSS FA-18/C B... 2023-10-02 23:00:00
BLENDER (51-05) URSS FA-18/C B... 2023-10-02 23:00:00
UNCINO [51-03] UGSB MCDONNELL... 2023-10-01 09:00:00
CAOTES [51-15] URSS F18 C 2023-10-01 22:45:00
CAOTES [51-15] URSS F18 C 2023-10-01 18:40:00
CAOTES [51-15] URSS F18 C 2023-10-01 10:15:00
CAOTES [51-15] URSS F18 C 2023-10-01 09:45:00
UNCINO [51-03] URSS MCDONNELL... 2023-09-30 16:00:00
IRON 51-01 URSS FA-18/C BO... 2023-09-30 01:00:00
IRON 51-01 URSS FA-18/C BO... 2023-09-30 00:00:00
IRON 51-01 URSS FA-18/C BO... 2023-09-30 19:00:00
IRON 51-01 URSS FA-18/C BO... 2023-09-30 17:00:00
GOLD[51-78] URSS F/A-18 2023-09-30 17:11:00
ELMULO [51-55] URSS SA341 GAZE... 2023-09-30 17:05:00
CAOTES [51-15] URSS F18 C 2023-10-01 22:45:00
CAOTES [51-15] URSS F18C 2023-10-01 18:30:00
UNCINO [51-03] URSS MCDONNELL... 2023-09-30 00:00:00
SPARTAN ( 51-08) URSS FA-18/C BO... 2023-09-27 16:30:00
SPARTAN ( 51-07) URSS MB339A 2023-09-27 17:15:00
ELMULO [51-55] URSS SA341 GAZE... 2023-09-27 16:30:00
VOLO FORD 1-2 URSS F-18C 2023-09-27 00:00:00
MAVERICK [51-02] URSS FA-18/C B... 2023-09-25 23:50:00
IRON 51-01 URSS F/A-18C BO... 2023-09-28 00:00:00
UNCINO [51-03] UGSB MCDONNELL... 2023-09-26 00:00:00
SPARTAN ( 51-08) URSS FA-18/C BO... 2023-09-26 23:45:00
IRON 51-01 URSS F/A-18C BO... 2023-09-28 22:30:00
GOLD[51-78] URSS F/A-18 2023-09-25 23:30:00
ELMULO [51-55] URSS SA341 GAZE... 2023-09-26 23:55:00
CAOTES [51-15] URSS F18 C 2023-09-26 23:25:00
BLENDER (51-05) URSS FA-18C BOE... 2023-09-28 23:30:00
VOY1955H118 URSS SA342 GAZE... 2023-09-24 18:45:00
IRON 51-01 URSS FA-18/C BO... 2023-09-24 19:30:00
IRON 51-01 URSS FA-18/C BO... 2023-09-24 18:00:00
GOLD[51-78] URSS F/A-18 2023-09-25 19:30:00
GOLD[51-78] URSS F/A-18 2023-09-25 18:00:00
VOY1955H117 URSS SA342 GAZE... 2023-09-24 08:00:00
IRON 51-01 URSS FA-18/C BO... 2023-09-23 17:00:00
GOLD[51-78] URSS F/A-18 2023-09-25 18:00:00
IRON 51-01 URSS FA-18/C BO... 2023-09-23 23:00:00
MAVERICK [51-02] URSS FA-18/C BO... 2023-09-24 23:59:00
IRON 51-01 URSS FA-18/C BO... 2023-09-21 00:00:00
GOLD[51-78] URSS F/A-18 2023-09-21 00:21:00
BLENDER (51-05) URSS M2000 C 2023-09-21 22:51:00
IRON 51-01 URSS FA-18/C BO... 2023-09-20 00:00:00
GOLD[51-78] URSS F/A-18 2023-09-21 23:15:00
UNCINO [51-03] UGSB MCDONNELL... 2023-09-18 10:30:00
SPARTAN 51-08 URSS F-18 2023-09-18 23:50:00
MAVERICK [51-02] URSS FA-18/C B... 2023-09-18 00:12:00
IRON 51-01 URSS FA-18/C BO... 2023-09-18 00:00:00
BLENDER (51-05) URSS FA-18C BOE... 2023-09-18 00:05:00
UNCINO [51-03] UGSB MCDONNELL... 2023-09-18 00:00:00
UNCINO [51-03] UGSB MCDONNELL... 2023-09-18 13:30:00
IRON 51-01 URSS FA-18C BOE... 2023-09-17 00:00:00
IRON 51-01 URSS FA-18C BOE... 2023-09-17 19:00:00
IRON 51-01 URSS FA-18C BOE... 2023-09-17 18:00:00
CAOTES [51-15] URSS F18 C 2023-09-17 10:05:00
CAOTES [51-15] URSS F18 C 2023-09-17 16:00:00
CAOTES [51-15] URSS F18 C 2023-09-16 23:17:00
BLENDER (51-05) URSS F-18 2023-09-16 00:50:00
IRON 51-01 URSS FA-18/C 2023-09-15 00:00:00
GOLD[51-78] URSS F/A-18 2023-09-15 00:40:00
UNCINO [51-03] UGSB MCDONNELL... 2023-09-15 16:00:00
UNCINO [51-03] URSS MCDONNELL... 2023-09-14 00:30:00
UNCINO [51-03] URSS MCDONNELL... 2023-09-14 23:00:00
IRON 51-01 URSS FA-18/C 2023-09-13 00:10:00
IRON 51-01 URSS FA-18/C 2023-09-13 23:00:00
GOLD[51-78] URSS F/A-18 2023-09-13 00:30:00
CAOTES [51-15] URSS F18 C 2023-09-13 22:40:00
CAOTES [51-15] URSS F18 C 2023-09-13 21:45:00
BLENDER (51-05) URSS F-18 2023-09-13 00:30:00
BLENDER (51-05) URSS F-18 2023-09-13 22:00:00
UNCINO 53 - 03 UGKS F-18 C 2023-09-13 00:30:00
IRON 51-01 URSS FA-18/C 2023-09-13 00:15:00
GOLD[51-78] URSS F/A-18 2023-09-12 12:20:00
GOLD[51-78] URSS F/A-18 2023-09-12 14:45:00
BLENDER (51-05) URSS F-18 2023-09-12 22:30:00
IRON 51-01 URSS FA-18/C 2023-09-10 23:59:00
IRON 51-01 URSS FA-18/C 2023-09-10 18:30:00
IRON 51-01 URSS FA-18/C 2023-09-10 12:00:00

Runway Information (Airport elevation: 66ft)

Runway 02 Length 8,203ft Width 149ft Elevation 66ft Surface Asphalt Heading 29
Runway 06 Length 9,506ft Width 136ft Elevation 66ft Surface Asphalt Heading 65
Runway 20 Length 8,203ft Width 149ft Elevation 66ft Surface Asphalt Heading 209
Runway 24 Length 9,506ft Width 136ft Elevation 66ft Surface Asphalt Heading 245

Airport Frequencies

Type Tower Frequency 121.200 Mhz
Type Tower Frequency 135.800 Mhz
Type APP/DEP Frequency 118.500 Mhz
Type APP/DEP Frequency 119.700 Mhz
Type APP/DEP Frequency 129.000 Mhz
Type Ground Frequency 118.800 Mhz
Type APP/DEP Frequency 124.000 Mhz
Type APP/DEP Frequency 124.600 Mhz
Type ATIS Frequency 126.200 Mhz
Type ATIS Frequency 129.375 Mhz
Type Clearance Frequency 132.700 Mhz
Type Tower Frequency 118.500 Mhz
Type Tower Frequency 124.000 Mhz
Type Ground Frequency 119.000 Mhz
Type Ground Frequency 118.800 Mhz
Type Tower Frequency 119.000 Mhz
Type Tower Frequency 119.700 Mhz

Airport Navaids

Type NDB Ident AD Frequency 365 Khz
Type VOR-DME Ident ADL Frequency 112700 Khz
Type NDB Ident SO Frequency 761 Khz